EW9935 Weather Reports


time (UTC)temp
C
wind
direction
speed
KPH
gust
KPH
rain 1hr
cm
rain 24hr
cm
rain mn
cm
humidity
%
barometer
mb
20260504214502 26 360 0.0 3.2 0.00 0.00 0.00 65 1008.1
20260504213100 26 360 0.0 1.6 0.00 0.00 0.00 64 1008.2
20260504211558 25 360 0.0 1.6 0.00 0.00 0.00 65 1008.3
20260504210108 25 360 0.0 1.6 0.00 0.00 0.00 65 1008.3
20260504204601 26 360 0.0 1.6 0.00 0.00 0.00 65 1008.4
20260504203053 26 360 0.0 3.2 0.00 0.00 0.00 67 1008.5
20260504201551 25 360 0.0 1.6 0.00 0.00 0.00 69 1008.5
20260504200046 25 360 0.0 1.6 0.00 0.00 0.00 71 1008.6
20260504194601 25 360 0.0 3.2 0.00 0.00 0.00 71 1008.6
20260504193042 24 360 0.0 1.6 0.00 0.00 0.00 72 1008.6
20260504191546 23 360 0.0 1.6 0.00 0.00 0.00 73 1008.6
20260504190044 23 360 0.0 1.6 0.00 0.00 0.00 73 1008.8
20260504184539 23 360 0.0 1.6 0.00 0.00 0.00 76 1008.8
20260504183033 23 360 0.0 1.6 0.00 0.00 0.00 75 1008.7
20260504181502 23 360 0.0 1.6 0.00 0.00 0.00 75 1008.8
20260504180001 23 360 0.0 3.2 0.00 0.00 0.00 74 1008.8
20260504174533 23 360 0.0 1.6 0.00 0.00 0.00 72 1008.6
20260504173033 22 5 0.0 0.0 0.00 0.00 0.00 68 1008.7
20260504171521 22 32 0.0 1.6 0.00 0.00 0.00 71 1008.6
20260504120107 12 138 0.0 0.0 0.00 0.00 0.00 99 1007.9
20260504081512 15 360 0.0 0.0 0.00 0.00 0.00 92 1007.7
20260504050022 18 150 0.0 0.0 0.00 0.00 0.00 85 1007.9
20260504044522 18 360 0.0 0.0 0.00 0.00 0.00 85 1008.0
20260504043019 18 159 0.0 0.0 0.00 0.00 0.00 83 1007.9
20260504041518 18 159 0.0 0.0 0.00 0.00 0.00 84 1007.8
20260504040018 19 159 0.0 0.0 0.00 0.00 0.00 85 1007.8
20260504034531 20 360 0.0 0.0 0.00 0.00 0.00 83 1007.7
20260504033018 21 160 0.0 0.0 0.00 0.00 0.00 79 1007.8
20260504031514 21 160 0.0 0.0 0.00 0.00 0.00 77 1007.7
20260504030013 22 147 0.0 0.0 0.00 0.00 0.00 75 1007.7
20260504024513 23 360 0.0 0.0 0.00 0.00 0.00 74 1007.7
20260504023009 23 209 0.0 0.0 0.00 0.00 0.00 72 1007.7
20260504021508 24 211 0.0 0.0 0.00 0.00 0.00 71 1007.8
20260504020005 24 212 0.0 0.0 0.00 0.00 0.00 70 1008.1
20260504014515 25 202 0.0 0.0 0.00 0.00 0.00 68 1008.1
20260504013003 26 360 0.0 0.0 0.00 0.00 0.00 69 1008.2
20260504011600 26 239 0.0 0.0 0.00 0.00 0.00 59 1008.3
20260504010120 26 360 0.0 0.0 0.00 0.00 0.00 64 1008.5
20260504004557 26 236 0.0 0.0 0.00 0.00 0.00 70 1008.6
20260504003054 27 262 0.0 0.0 0.00 0.00 0.00 63 1008.8
20260504001608 27 360 0.0 0.0 0.00 0.00 0.00 62 1008.9
20260504000053 27 360 0.0 1.6 0.00 0.00 0.00 62 1009.0
20260503234549 27 360 0.0 1.6 0.00 0.00 0.00 62 1009.2
20260503233045 27 360 0.0 0.0 0.00 0.00 0.00 64 1009.3
20260503231548 27 262 0.0 0.0 0.00 0.00 0.00 64 1009.4
20260503230038 26 360 0.0 1.6 0.00 0.00 0.00 67 1009.8
20260503224536 26 267 0.0 3.2 0.00 0.00 0.00 65 1009.9
20260503223033 26 360 0.0 1.6 0.00 0.00 0.00 64 1010.1
20260503221534 25 273 0.0 3.2 0.00 0.00 0.00 65 1010.2
20260503220036 26 360 0.0 1.6 0.00 0.00 0.00 64 1010.3